This is the latest recevied weather packets stored in our database for station/object AJ7DN. If no packets are shown the sender has not sent any weather packets the latest 10 day(s).
| Time | Temp. | Humidity | Pressure | Rain* | Wind** | Luminosity | Snow |
|---|---|---|---|---|---|---|---|
| 1777849461 | 34.44° C | 24% | 1011.9 hPa | 0 mm | - | 513 W/m² | - |
| 1777849160 | 34.44° C | 25% | 1011.9 hPa | 0 mm | - | 538 W/m² | - |
| 1777848856 | 34.44° C | 24% | 1011.8 hPa | 0 mm | - | 489 W/m² | - |
| 1777848552 | 35° C | 22% | 1011.9 hPa | 0 mm | - | 446 W/m² | - |
| 1777848249 | 35° C | 24% | 1011.9 hPa | 0 mm | - | 535 W/m² | - |
| 1777847946 | 33.89° C | 25% | 1012.2 hPa | 0 mm | - | 564 W/m² | - |
| 1777847644 | 34.44° C | 23% | 1012.2 hPa | 0 mm | - | 596 W/m² | - |
| 1777847339 | 34.44° C | 23% | 1011.9 hPa | 0 mm | - | 594 W/m² | - |
| 1777847038 | 34.44° C | 23% | 1012.4 hPa | 0 mm | - | 612 W/m² | - |
| 1777846736 | 34.44° C | 26% | 1012.4 hPa | 0 mm | - | 607 W/m² | - |
| 1777846434 | 34.44° C | 24% | 1012.3 hPa | 0 mm | - | 629 W/m² | - |
| 1777846130 | 33.89° C | 26% | 1012.7 hPa | 0 mm | - | 628 W/m² | - |
| 1777845827 | 33.89° C | 27% | 1012.8 hPa | 0 mm | - | 638 W/m² | - |
| 1777845524 | 34.44° C | 27% | 1012.6 hPa | 0 mm | - | 640 W/m² | - |
| 1777845221 | 33.89° C | 25% | 1012.6 hPa | 0 mm | - | 642 W/m² | - |
| 1777844919 | 33.33° C | 27% | 1012.8 hPa | 0 mm | - | 642 W/m² | - |
| 1777844616 | 33.33° C | 27% | 1013 hPa | 0 mm | - | 648 W/m² | - |
| 1777844313 | 33.33° C | 26% | 1012.9 hPa | 0 mm | - | 660 W/m² | - |
| 1777844011 | 33.33° C | 25% | 1013.1 hPa | 0 mm | - | 674 W/m² | - |
| 1777843707 | 33.33° C | 26% | 1013.1 hPa | 0 mm | - | 676 W/m² | - |
| 1777843405 | 33.33° C | 27% | 1013.1 hPa | 0 mm | - | 672 W/m² | - |
| 1777843102 | 33.33° C | 29% | 1013.1 hPa | 0 mm | - | 668 W/m² | - |
| 1777842799 | 32.78° C | 27% | 1013.3 hPa | 0 mm | - | 646 W/m² | - |
| 1777842499 | 33.33° C | 28% | 1013.3 hPa | 0 mm | - | 649 W/m² | - |
| 1777842197 | 32.78° C | 29% | 1013.4 hPa | 0 mm | - | 649 W/m² | - |
* Rain latest hour (hover to see other rain measurements)
** Current wind speed in m/s (hover to see current wind gust speed)